Miscellaneous Local Product
Issued by NWS Hastings, NE

Home | Current Version | Previous Version | Graphics & Text | Print | Product List | Glossary On
Versions: 1 2 3 4 5 6 7 8 9 10 11 12 13 14 15 16 17 18 19 20 21 22 23 24 25 26 27 28 29 30 31 32 33 34 35 36 37 38 39 40 41 42 43 44 45 46 47 48 49 50
249
AXUS43 KGID 180502
MISGRI

GID CWA HOURLY WEATHER ROUNDUP
NATIONAL WEATHER SERVICE HASTINGS NE
1200 AM CDT WED APR 18 2018

NOTE: "FAIR" INDICATES FEW OR NO CLOUDS BELOW 12,000 FEET WITH NO
SIGNIFICANT WEATHER AND/OR OBSTRUCTIONS TO VISIBILITY.

...SOUTH CENTRAL NEBRASKA...

CITY           SKY/WX    TMP DP  RH WIND       PRES   REMARKS
GRAND ISLAND   LGT RAIN  43  36  76 N21G33    29.74R
KEARNEY        LGT RAIN  44  40  85 N9        29.75R
HASTINGS       CLOUDY    48  34  58 N15       29.71R
ORD            CLOUDY    41  31  67 NE13G24   29.76R
YORK             N/A     39  34  81 NE24G35   29.72R WCI  28
AURORA         CLOUDY    42  33  71 NE22G32   29.70S
LEXINGTON      LGT RAIN  45  40  83 NW15      29.79R
HOLDREGE       RAIN      45  42  88 W10       29.78R
HEBRON         MOCLDY    51  34  52 N21G26    29.63R

...NEBRASKA PANHANDLE...

CITY           SKY/WX    TMP DP  RH WIND       PRES   REMARKS
CHADRON        CLOUDY    38  35  89 NW14      29.98R WCI  30
ALLIANCE       CLOUDY    35  34  96 NW25G37   29.93S WCI  23
SCOTTSBLUFF    PTCLDY    35  31  85 W17       30.00R WCI  25
SIDNEY         CLEAR     34  30  85 NW23G31   29.96R WCI  22

...WESTERN AND NORTH CENTRAL NEBRASKA...

CITY           SKY/WX    TMP DP  RH WIND       PRES   REMARKS
VALENTINE      LGT SNOW  34  32  92 NW8       29.88S FOG     WCI  27
AINSWORTH      LGT SNOW  33  32  99 N13       29.84F WCI  23
ONEILL         CLOUDY    37  31  78 NE14G20   29.78S WCI  29
BROKEN BOW     LGT RAIN  41  34  76 NW14      29.80R
IMPERIAL       PTCLDY    41  35  79 NW32G48   29.87S
NORTH PLATTE   LGT RAIN  41  37  86 NE18G28   29.81S
MCCOOK         CLOUDY    47  42  83 NW24G35   29.79R

...EASTERN NEBRASKA...

CITY           SKY/WX    TMP DP  RH WIND       PRES   REMARKS
NORFOLK        CLOUDY    33  25  72 NE16G25   29.74F WCI  23
SO SIOUX CITY  CLOUDY    34  24  67 NE18      29.83F WCI  23
TEKAMAH        CLOUDY    36  29  75 N21       29.79F WCI  25
COLUMBUS       CLOUDY    36  28  73 NE20G26   29.76R WCI  25
ALBION         LGT RAIN  36  28  73 NE12G25   29.77R WCI  28
OMAHA EPPLEY   CLOUDY    41  33  73 N20G28    29.73R
MILLARD        CLOUDY    43  34  71 NE12G23   29.70F
LINCOLN        CLOUDY    43  34  70 N28G40    29.68R
NEBRASKA CITY  PTCLDY    47  32  55 NE20G25   29.63R
BEATRICE       PTCLDY    50  33  53 NE17G24   29.59R
FALLS CITY     CLEAR     50  32  50 E20G30    29.52F

...NORTHERN KANSAS...

CITY           SKY/WX    TMP DP  RH WIND       PRES   REMARKS
GOODLAND       CLEAR     41  30  65 NW33G48   29.90R
HILL CITY      CLOUDY    52  40  63 NW21G29   29.73S
NORTON         MOCLDY    48  41  76 N23G33    29.71F
PHILLIPSBURG   RAIN      50  45  81 NW25G40   29.74R
SMITH CENTER   PTCLDY    52  34  50 N16G28    29.70R
BELOIT         MOCLDY    52  32  46 NW32G44   29.64R
HAYS           PTCLDY    55  39  54 N33G45    29.67R
RUSSELL        CLEAR     54  36  50 NW33G51   29.67R
CONCORDIA      PTCLDY    51  34  52 N29G40    29.57R
SALINA         CLOUDY    71  40  32 W35G46    29.40R HAZE
TOPEKA         CLEAR     58  42  55 E17       29.46F



USA.gov is the U.S. government's official web portal to all federal, state and local government web resources and services.